Location: Newark
(50.4348°N, 30.5552°E)
Time: 12:50:15
(UTC+00:00)

Tiros 1 despin weight - Pass Details

Date: 01 February 2020
Orbit: 594 x 642 km, 48.2° (Epoch: 24 February)

Event Time Altitude Azimuth Distance (km) Brightness Sun altitude
Rises 13:19:20 0° 274° (W) 2,898 ? 10.8°
Reaches altitude 10° 13:23:48 10° 233° (SW) 2,000 ? 10.3°
Maximum altitude 13:24:33 10° 224° (SW) 1,978 ? 10.2°
Drops below altitude 10° 13:25:18 10° 215° (SW) 2,003 ? 10.1°
Sets 13:29:48 0° 174° (S) 2,916 ? 9.6°
